Regional Weather Roundup
Issued by NWS

Home | Current Version | Previous Version | Graphics & Text | Print | Product List | Glossary On
Versions: 1 2 3 4 5 6 7 8 9 10 11 12 13 14 15 16 17 18 19 20 21 22 23 24 25 26 27 28 29 30 31 32 33 34 35 36 37 38 39 40 41 42 43 44 45 46 47 48 49 50
903
ASUS45 KTFX 241710
RWRMT
MONTANA REGIONAL WEATHER ROUNDUP
NATIONAL WEATHER SERVICE GREAT FALLS MT
1100 AM MDT SUN JUL 24 2016

NOTE: "FAIR" INDICATES FEW OR NO CLOUDS BELOW 12000 FEET WITH NO
SIGNIFICANT WEATHER AND/OR OBSTRUCTIONS TO VISIBILITY.

MTZ001>007-043-241800-
WEST OF THE DIVIDE

CITY           SKY/WX    TMP DP  RH WIND       PRES   REMARKS
KALISPELL      SUNNY     69  46  43 SE9       30.14F
MISSOULA       SUNNY     69  43  38 CALM      30.17F
BUTTE          SUNNY     68  35  29 VRB3      30.24F
MULLAN PASS    SUNNY     60  43  53 CALM      30.26S
ANACONDA         N/A     70  34  26 CALM      30.20F
DEER LODGE       N/A     66  39  37 CALM      30.23F
EUREKA           N/A     70  46  43 S3        30.13F
HAMILTON         N/A     64  43  45 CALM      30.17F
LIBBY            N/A     66  46  48 CALM      30.14F
PLAINS           N/A     69  45  42 CALM      30.14F
RONAN            N/A     71  45  39 CALM      30.19F
$$

MTZ008-052>055-241800-
SOUTHWEST MONTANA

CITY           SKY/WX    TMP DP  RH WIND       PRES   REMARKS
BOZEMAN        SUNNY     70  40  33 VRB3      30.19F
DILLON         SUNNY     67  39  35 CALM      30.21F
W YELLOWSTONE  SUNNY     64  36  34 E3        30.30F
ENNIS          SUNNY     72  37  28 VRB5      30.26F
THREE FORKS      N/A     72  -3   5 E1        30.16F
TWIN BRIDGES     N/A     68  38  33 S6        30.18F
$$

MTZ009-010-012-014-046-048-049-054-241800-
EAST SLOPES AND CENTRAL MONTANA

CITY           SKY/WX    TMP DP  RH WIND       PRES   REMARKS
CUT BANK       SUNNY     73  41  31 N7        30.11F
GREAT FALLS    SUNNY     73  38  27 W6        30.12F
MALMSTROM AFB  SUNNY     73  40  31 SW9       30.12F
HELENA         SUNNY     75  41  29 E5        30.15F
CHOTEAU          N/A     72  36  26 VRB5      30.14F
CONRAD           N/A     74  47  38 W3        30.13S
$$

MTZ011-013-016-021-045-047-050-051-241800-
NORTH CENTRAL MONTANA

CITY           SKY/WX    TMP DP  RH WIND       PRES   REMARKS
HAVRE            N/A     76  47  35 SW12      30.05F
LEWISTOWN      SUNNY     73  41  31 N5        30.15F
N BAR RANCH      N/A     73  41  31 VRB6      30.17S
CHINOOK          N/A     77  48  36 W9        30.04F
$$

MTZ017>020-022>027-061-062-241800-
NORTHEAST MONTANA

CITY           SKY/WX    TMP DP  RH WIND       PRES   REMARKS
GLASGOW        SUNNY     77  55  46 S7        30.04F
JORDAN           N/A     83  47  28 W12       30.06S
SIDNEY         SUNNY     79  52  38 VRB7      30.06F
WOLF POINT     MOSUNNY   80  53  39 W6        30.05F
PLENTYWOOD       N/A     75  54  46 W3        30.05S
POPLAR           N/A     77  52  41 SW6       30.06S
SCOBEY           N/A     90  65  43 CALM      30.04F HX  92
$$

MTZ028>42-056>058-241800-
SOUTHCENTRAL AND SOUTHEAST MONTANA

CITY           SKY/WX    TMP DP  RH WIND       PRES   REMARKS
BAKER          SUNNY     79  46  31 VRB5      30.13S
BILLINGS       SUNNY     75  47  36 S8        30.12F
LIVINGSTON     SUNNY     75  38  26 W8        30.17F
MILES CITY     SUNNY     82  46  28 S8        30.08F
FORSYTH          N/A     82  45  26 SE5       30.07F
LAUREL           N/A     76  47  35 SE2       30.10F
ROUNDUP          N/A     75  45  34 CALM      30.02F
$$

REGIONAL REPORTS...DAKOTAS

CITY           SKY/WX    TMP DP  RH WIND       PRES   REMARKS
WILLISTON      SUNNY     78  53  41 W12       30.06S
MINOT          SUNNY     79  55  43 W20       30.00R
DICKINSON      SUNNY     75  52  44 W8        30.08S
CROSBY           N/A     72  59  64 NW12G18   30.05S
BISMARCK       SUNNY     78  57  48 W12       30.05S
GRAND FORKS    MOSUNNY   77  64  64 W15G22    29.87R
FARGO          SUNNY     79  63  57 W16       29.91S
BUFFALO SD       N/A     79  45  29 VRB3      30.07F
RAPID CITY     CLOUDY    76  52  43 S7        30.16S
$$

REGIONAL REPORTS...WYOMING/IDAHO/WASHINGTON

CITY           SKY/WX    TMP DP  RH WIND       PRES   REMARKS
GILLETTE       SUNNY     79  40  24 S9G18     30.18S
SHERIDAN       SUNNY     84  40  21 S15       30.12F
BUFFALO WY     SUNNY     79  37  22 S21G29    30.20F
CODY           SUNNY     73  43  33 N7        30.20F
YELLOWSTONE LA   N/A     60  35  39 SE6       30.38F
IDAHO FALLS    SUNNY     66  39  37 VRB6      30.20F
SALMON         SUNNY     68  39  34 CALM      30.16F
BOISE          SUNNY     73  42  32 NW3       30.10S
SPOKANE        MOSUNNY   72  48  42 NE6       30.13F
$$

REGIONAL REPORTS...ALBERTA

CITY           SKY/WX    TMP DP  RH WIND       PRES   REMARKS
EDMONTON       MOSUNNY   73  50  43 SW10G17   29.92F
CALGARY        MOSUNNY   72  41  33 SW7       30.04F
LETHBRIDGE     SUNNY     72  45  37 VRB3      30.06F
MEDICINE HAT   MOSUNNY   70  57  64 SW9       30.02F
WATERTON GATE    N/A     70  46  43 SW9         N/A
CARDSTON         N/A     72  45  37 W5          N/A
MILK RIVER       N/A     73  43  33 NW10        N/A
$$

REGIONAL REPORTS...SASKATCHEWAN

CITY           SKY/WX    TMP DP  RH WIND       PRES   REMARKS
SWIFT CURRENT  SUNNY     72  54  53 SE5       30.03S
REGINA         MOSUNNY   70  55  60 W14G22    30.00F
SASKATOON      MOSUNNY   70  54  56 NW12      29.99S
CYPRESS HILLS    N/A     72  45  37 SW8         N/A
VAL MARIE        N/A     73  54  49 S6          N/A
ROCKGLEN         N/A     73  52  46 W5          N/A
ASSINIBOIA       N/A     73  50  43 SW9         N/A
$$




USA.gov is the U.S. government's official web portal to all federal, state and local government web resources and services.